TimeAEST,TemperatureF,Dew PointF,Humidity,Sea Level PressureIn,VisibilityMPH,Wind Direction,Wind SpeedMPH,Gust SpeedMPH,PrecipitationIn,Events,Conditions,WindDirDegrees,DateUTC
12:00 AM,73,70,86,29.93,,SE,6.9,,,,,130,2013-05-15 14:00:00
12:00 AM,73.4,69.8,88,29.92,6.2,SE,6.9,-,N/A,,Partly Cloudy,130,2013-05-15 14:00:00
12:30 AM,71.6,69.8,94,29.92,6.2,Calm,Calm,-,N/A,,Unknown,0,2013-05-15 14:30:00
1:00 AM,71,69,92,29.92,,Calm,Calm,,,,,,2013-05-15 15:00:00
1:00 AM,69.8,69.8,100,29.92,6.2,Calm,Calm,-,N/A,,Partly Cloudy,0,2013-05-15 15:00:00
1:30 AM,69.8,68.0,94,29.89,6.2,Calm,Calm,-,N/A,,Partly Cloudy,0,2013-05-15 15:30:00
2:00 AM,69.8,68.0,94,29.89,6.2,WNW,2.3,-,N/A,,Partly Cloudy,290,2013-05-15 16:00:00
2:30 AM,69.8,68.0,94,29.89,6.2,Calm,Calm,-,N/A,,Partly Cloudy,0,2013-05-15 16:30:00
3:00 AM,70,69,94,29.88,,WNW,1.2,,,,,290,2013-05-15 17:00:00
3:00 AM,69.8,68.0,94,29.89,6.2,WNW,1.2,-,N/A,,Partly Cloudy,290,2013-05-15 17:00:00
3:30 AM,69.8,68.0,94,29.89,6.2,Calm,Calm,-,N/A,,Partly Cloudy,0,2013-05-15 17:30:00
4:00 AM,69.8,68.0,94,29.89,6.2,Calm,Calm,-,N/A,,Partly Cloudy,0,2013-05-15 18:00:00
4:30 AM,69.8,68.0,94,29.89,6.2,Calm,Calm,-,N/A,,Mostly Cloudy,0,2013-05-15 18:30:00
5:00 AM,69.8,68.0,94,29.89,6.2,WSW,3.5,-,N/A,,Scattered Clouds,250,2013-05-15 19:00:00
5:30 AM,69.8,68.0,94,29.89,6.2,Calm,Calm,-,N/A,,Scattered Clouds,0,2013-05-15 19:30:00
6:00 AM,69,69,98,29.90,19,Calm,Calm,,,,Partly Cloudy,,2013-05-15 20:00:00
6:00 AM,69.8,68.0,94,29.89,6.2,Calm,Calm,-,N/A,,Mostly Cloudy,0,2013-05-15 20:00:00
6:30 AM,69.8,69.8,100,29.89,6.2,WSW,1.2,-,N/A,,Scattered Clouds,250,2013-05-15 20:30:00
7:00 AM,71.6,69.8,94,29.92,6.2,Calm,Calm,-,N/A,,Scattered Clouds,0,2013-05-15 21:00:00
7:30 AM,71.6,69.8,94,29.92,6.2,SSW,1.2,-,N/A,,Scattered Clouds,200,2013-05-15 21:30:00
8:00 AM,73.4,69.8,88,29.92,6.2,NW,2.3,-,N/A,,Mostly Cloudy,310,2013-05-15 22:00:00
8:30 AM,75.2,69.8,83,29.95,6.2,West,1.2,-,N/A,,Mostly Cloudy,280,2013-05-15 22:30:00
9:00 AM,76,71,78,29.96,19,East,4.6,,,,Partly Cloudy,90,2013-05-15 23:00:00
9:00 AM,75.2,69.8,83,29.95,6.2,East,4.6,-,N/A,,Mostly Cloudy,90,2013-05-15 23:00:00
9:30 AM,77.0,69.8,78,29.95,6.2,SE,8.1,-,N/A,,Mostly Cloudy,140,2013-05-15 23:30:00
10:00 AM,78,72,76,29.97,,West,5.8,,,,,280,2013-05-16 00:00:00
10:00 AM,78.8,71.6,78,29.95,6.2,West,5.8,-,N/A,,Mostly Cloudy,280,2013-05-16 00:00:00
10:30 AM,80.6,71.6,74,29.95,6.2,Calm,Calm,-,N/A,,Mostly Cloudy,0,2013-05-16 00:30:00
11:00 AM,82.4,71.6,70,29.92,6.2,SSE,6.9,-,N/A,,Mostly Cloudy,150,2013-05-16 01:00:00
11:30 AM,80.6,69.8,70,29.92,6.2,SSE,5.8,-,N/A,,Mostly Cloudy,160,2013-05-16 01:30:00
12:00 PM,83,72,61,29.92,19,South,4.6,,,,Partly Cloudy,170,2013-05-16 02:00:00
12:00 PM,84.2,71.6,66,29.92,6.2,South,4.6,-,N/A,,Scattered Clouds,170,2013-05-16 02:00:00
12:30 PM,84.2,71.6,66,29.89,6.2,ENE,4.6,-,N/A,,Scattered Clouds,60,2013-05-16 02:30:00
1:00 PM,83,72,63,29.90,,NE,8.1,,,,,50,2013-05-16 03:00:00
1:00 PM,82.4,71.6,70,29.89,6.2,NE,8.1,-,N/A,,Partly Cloudy,50,2013-05-16 03:00:00
1:30 PM,82.4,71.6,70,29.86,6.2,NE,8.1,-,N/A,,Partly Cloudy,40,2013-05-16 03:30:00
2:00 PM,82.4,73.4,74,29.86,6.2,NNE,10.4,-,N/A,,Partly Cloudy,30,2013-05-16 04:00:00
2:30 PM,82.4,73.4,74,29.86,6.2,NE,10.4,-,N/A,,Scattered Clouds,50,2013-05-16 04:30:00
3:00 PM,82,71,62,29.87,19,NE,9.2,,,,Partly Cloudy,50,2013-05-16 05:00:00
3:00 PM,82.4,71.6,70,29.86,6.2,NE,9.2,-,N/A,,Partly Cloudy,50,2013-05-16 05:00:00
3:30 PM,82.4,71.6,70,29.86,6.2,ENE,9.2,-,N/A,,Partly Cloudy,60,2013-05-16 05:30:00
4:00 PM,82,72,65,29.88,,NE,8.1,,,,,50,2013-05-16 06:00:00
4:00 PM,82.4,71.6,70,29.86,6.2,NE,8.1,-,N/A,,Partly Cloudy,50,2013-05-16 06:00:00
4:30 PM,80.6,73.4,79,29.89,6.2,NE,6.9,-,N/A,,Partly Cloudy,50,2013-05-16 06:30:00
5:00 PM,80.6,73.4,79,29.89,6.2,NNE,5.8,-,N/A,,Partly Cloudy,30,2013-05-16 07:00:00
5:30 PM,78.8,73.4,83,29.89,6.2,NNE,5.8,-,N/A,,Partly Cloudy,20,2013-05-16 07:30:00
6:00 PM,77,73,85,29.91,,North,3.5,,,,,0,2013-05-16 08:00:00
6:00 PM,77.0,73.4,89,29.89,6.2,North,3.5,-,N/A,,Partly Cloudy,350,2013-05-16 08:00:00
6:30 PM,77.0,73.4,89,29.92,6.2,WNW,2.3,-,N/A,,Partly Cloudy,300,2013-05-16 08:30:00
7:00 PM,76,73,88,29.94,,Calm,Calm,,,,,,2013-05-16 09:00:00
7:00 PM,75.2,73.4,94,29.92,6.2,Calm,Calm,-,N/A,,Partly Cloudy,0,2013-05-16 09:00:00
7:30 PM,75.2,73.4,94,29.92,6.2,Calm,Calm,-,N/A,,Partly Cloudy,0,2013-05-16 09:30:00
8:00 PM,75.2,73.4,94,29.95,6.2,West,4.6,-,N/A,,Partly Cloudy,280,2013-05-16 10:00:00
8:30 PM,75.2,73.4,94,29.95,6.2,West,5.8,-,N/A,,Partly Cloudy,280,2013-05-16 10:30:00
9:00 PM,75,72,89,29.97,,West,4.6,,,,,280,2013-05-16 11:00:00
9:00 PM,75.2,71.6,89,29.98,6.2,West,4.6,-,N/A,,Partly Cloudy,280,2013-05-16 11:00:00
9:30 PM,75.2,73.4,94,29.98,6.2,West,5.8,-,N/A,,Partly Cloudy,280,2013-05-16 11:30:00
10:00 PM,74,72,94,29.98,,West,4.6,,,,,270,2013-05-16 12:00:00
10:00 PM,75.2,73.4,94,29.98,6.2,West,4.6,-,N/A,,Mostly Cloudy,270,2013-05-16 12:00:00
10:30 PM,75.2,73.4,94,29.95,6.2,West,2.3,-,N/A,,Scattered Clouds,280,2013-05-16 12:30:00
11:00 PM,73.4,71.6,94,29.95,6.2,West,3.5,-,N/A,,Scattered Clouds,270,2013-05-16 13:00:00
11:30 PM,73.4,71.6,94,29.95,6.2,Calm,Calm,-,N/A,,Scattered Clouds,0,2013-05-16 13:30:00